Weather History for Crestview, FL

Change the Weather History Date:

Tuesday, April 2, 2013

  Actual Average Record
Temperature  
Mean Temperature 62 °F -  
Max Temperature 80 °F - - ()
Min Temperature 44 °F - - ()
Degree Days  
Heating Degree Days 4    
Growing Degree Days 12 (Base 50)    
Moisture  
Dew Point 47 °F    
Average Humidity 71    
Maximum Humidity 100    
Minimum Humidity 27    
Precipitation  
Precipitation 0.00 in - - ()
Sea Level Pressure  
Sea Level Pressure 30.08 in    
Wind  
Wind Speed 3 mph (ESE)    
Max Wind Speed 14 mph    
Max Gust Speed 20 mph    
Visibility 9 miles    
Events      
T = Trace of Precipitation, MM = Missing Value Source: NWS Daily Summary

Daily Weather History Graph

Daily Weather History Graph

Search for Another Location

Airport:

Trip Planner

Search our weather history database for the weather conditions in past years. The results will help you decide how hot, cold, wet, or windy it might be!

Date:

Astronomy

Apr. 02, 2013 Rise Set
Actual Time 6:33 AM CDT 7:05 PM CDT
Civil Twilight 6:09 AM CDT 7:30 PM CDT
Nautical Twilight 5:40 AM CDT 7:58 PM CDT
Astronomical Twilight 5:11 AM CDT 8:27 PM CDT
Moon 12:53 AM CDT (4/2) 11:40 AM CDT (4/2)
Length of Visible Light 13h 20m
Length of Day
12h 32m
Waning Gibbous, 55% of the Moon is Illuminated
Apr 2
Waning Gibbous
Apr 2
Last Quarter
Apr 10
New
Apr 18
First Quarter
Apr 25
Full

Hourly Weather History & Observations

Time (CDT) Temp. Dew Point Humidity Pressure Visibility Wind Dir Wind Speed Gust Speed Precip Events Conditions
12:58 AM 50.7 °F 48.7 °F 93% 30.05 in 10.0 mi Calm Calm - N/A   Clear
1:58 AM 50.7 °F 49.3 °F 95% 30.06 in 10.0 mi Calm Calm - N/A   Clear
2:58 AM 48.4 °F 46.2 °F 92% 30.05 in 10.0 mi NNW 2.3 mph - N/A   Clear
3:58 AM 47.7 °F 47.1 °F 98% 30.05 in 10.0 mi North 1.2 mph - N/A   Clear
4:23 AM 48.2 °F 48.2 °F 100% 30.05 in 1.8 mi Calm Calm - N/A   Clear
4:28 AM 48.2 °F 48.2 °F 100% 30.05 in 2.0 mi Calm Calm - N/A   Clear
4:33 AM 48.2 °F 46.4 °F 93% 30.05 in 6.0 mi Calm Calm - N/A   Clear
4:58 AM 47.3 °F 47.1 °F 99% 30.07 in 10.0 mi Calm Calm - N/A   Clear
5:58 AM 44.8 °F 44.2 °F 98% 30.09 in 10.0 mi North 2.3 mph - N/A   Clear
6:43 AM 44.6 °F 44.6 °F 100% 30.09 in 2.0 mi NE 2.3 mph - N/A   Clear
6:53 AM 44.6 °F 44.6 °F 100% 30.09 in 5.0 mi NE 2.3 mph - N/A   Clear
6:58 AM 44.2 °F 44.1 °F 99% 30.10 in 9.0 mi NE 2.3 mph - N/A   Clear
7:58 AM 52.7 °F 51.1 °F 94% 30.12 in 10.0 mi NNE 2.3 mph - N/A   Clear
8:55 AM 62.8 °F 47.1 °F 57% 30.13 in 10.0 mi East 8.1 mph - N/A   Scattered Clouds
9:55 AM 71.2 °F 44.6 °F 38% 30.14 in 10.0 mi East 8.1 mph - N/A   Scattered Clouds
10:55 AM 75.2 °F 43.0 °F 32% 30.13 in 10.0 mi NE 6.9 mph - N/A   Scattered Clouds
11:55 AM 77.5 °F 41.7 °F 28% 30.12 in 10.0 mi SSE 4.6 mph - N/A   Scattered Clouds
12:55 PM 79.7 °F 44.8 °F 29% 30.10 in 10.0 mi SSE 11.5 mph - N/A   Scattered Clouds
1:55 PM 79.9 °F 44.6 °F 29% 30.08 in 10.0 mi SSE 13.8 mph 19.6 mph N/A   Mostly Cloudy
2:55 PM 78.4 °F 78.8 °F 100% 30.06 in 10.0 mi South 11.5 mph - N/A   Mostly Cloudy
3:55 PM 78.6 °F 41.9 °F 27% 30.04 in 10.0 mi SSE 12.7 mph - N/A   Mostly Cloudy
4:55 PM 76.8 °F 42.8 °F 30% 30.04 in 10.0 mi SSE 11.5 mph - N/A   Mostly Cloudy
5:55 PM 75.4 °F 43.3 °F 32% 30.04 in 10.0 mi South 10.4 mph - N/A   Mostly Cloudy
6:55 PM 71.2 °F 45.5 °F 40% 30.05 in 10.0 mi South 6.9 mph - N/A   Mostly Cloudy
7:55 PM 64.4 °F 47.7 °F 55% 30.07 in 10.0 mi South 8.1 mph - N/A   Mostly Cloudy
8:55 PM 61.3 °F 49.8 °F 66% 30.07 in 10.0 mi SSE 4.6 mph - N/A   Mostly Cloudy
9:55 PM 58.6 °F 49.6 °F 72% 30.07 in 10.0 mi SSE 3.5 mph - N/A   Mostly Cloudy
10:55 PM 57.2 °F 49.6 °F 76% 30.07 in 10.0 mi ENE 1.2 mph - N/A   Mostly Cloudy
11:55 PM 55.0 °F 49.6 °F 82% 30.06 in 10.0 mi ENE 2.3 mph - N/A   Overcast